Regional Weather Roundup
Issued by NWS

Home | Current Version | Previous Version | Text Only | Print | Product List | Glossary On
Versions: 1 2 3 4 5 6 7 8 9 10 11 12 13 14 15 16 17 18 19 20 21 22 23 24 25 26 27 28 29 30 31 32 33 34 35 36 37 38 39 40 41 42 43 44 45 46 47 48 49 50
000
ASUS43 KMKX 302021
RWRWI

WISCONSIN REGIONAL WEATHER ROUNDUP
NATIONAL WEATHER SERVICE MILWAUKEE/SULLIVAN WI
300 PM CDT SAT AUG 30 2014

NOTE: "FAIR" INDICATES FEW OR NO CLOUDS BELOW 12,000 FEET WITH NO
SIGNIFICANT WEATHER AND/OR OBSTRUCTIONS TO VISIBILITY.

WIZ001-002-006>008-014>016-023>028-302100-
NORTHWEST WISCONSIN

CITY           SKY/WX    TMP DP  RH WIND       PRES   REMARKS
SUPERIOR ARPT  CLOUDY    66  62  85 NE6       29.87S
ASHLAND        CLOUDY    62  59  90 NE7       29.89S
HAYWARD        PTSUNNY   66  59  78 N12       29.87S
SIREN          CLOUDY    69  59  69 E5        29.88R
RICE LAKE      CLOUDY    66  59  78 N3        29.88S
LADYSMITH      CLOUDY    64  60  87 N9        29.88S
EAU CLAIRE     CLOUDY    71  64  78 N12       29.84S
MENOMONIE      CLOUDY    69  64  83 W7        29.86S
NEW RICHMOND   CLOUDY    68  62  79 NW3       29.88S
OSCEOLA        CLOUDY    69  64  82 N3        29.90S
$$

WIZ003>005-009-010-017-018-302100-
NORTH CENTRAL WISCONSIN

CITY           SKY/WX    TMP DP  RH WIND       PRES   REMARKS
WOODRUFF       CLOUDY    62  60  93 N9        29.85S
RHINELANDER    CLOUDY    62  60  93 VRB7      29.84R
EAGLE RIVER    CLOUDY    61  61 100 N9        29.84R
LAND O LAKES   LGT RAIN  60  59  96 N9        29.85S
PHILLIPS       CLOUDY    61  59  91 N7        29.85R
TOMAHAWK       CLOUDY    63  60  87 N9        29.84S
MEDFORD        CLOUDY    66  62  87 NW8       29.84R
MERRILL        CLOUDY    67  63  88 N7        29.82R
$$

WIZ029-030-035-036-043>047-302100-
CENTRAL WISCONSIN

CITY           SKY/WX    TMP DP  RH WIND       PRES   REMARKS
WAUSAU         CLOUDY    73  64  73 NW9       29.78S
MOSINEE        PTSUNNY   72  68  88 NW7       29.81
MARSHFIELD     CLOUDY    74  64  71 NW14      29.81S
STEVENS POINT  CLOUDY    68  65  90 CALM      29.80S
WAUPACA        PTSUNNY   78  67  70 W7        29.78S HX  80
WAUTOMA        LGT RAIN  75  70  83 NW10      29.79S
WISC RAPIDS    CLOUDY    75  67  76 W8        29.81S
CAMP DOUGLAS   PTSUNNY   77  68  73 W13       29.81S
$$

WIZ011>013-019>022-031-037>040-048>050-302100-
NORTHEAST WISCONSIN

CITY           SKY/WX    TMP DP  RH WIND       PRES   REMARKS
ANTIGO         LGT RAIN  67  65  92 N10       29.80S
STURGEON BAY   CLOUDY    70  64  83 NW7       29.75S
GREEN BAY      CLOUDY    75  67  76 W9        29.75S
MANITOWOC      PTSUNNY   75  70  84 W7        29.75F
APPLETON       PTSUNNY   75  63  64 W9        29.77S
CLINTONVILLE   PTSUNNY   75  64  69 W6        29.76F
OSHKOSH        PTSUNNY   75  67  76 W6        29.77S
$$

WIZ032>034-041-042-053>061-302100-
SOUTHWEST WISCONSIN

CITY           SKY/WX    TMP DP  RH WIND       PRES   REMARKS
LA CROSSE      CLOUDY    76  66  71 NW10      29.83S
SPARTA         MOSUNNY   76  64  64 W10       29.83S
VIROQUA        CLOUDY    74  69  85 W9        29.85S
BOSCOBEL       MOSUNNY   81  67  62 VRB7      29.83S HX  83
PRAIRIE DU CHI MOSUNNY   79  61  53 W7        29.83S HX  80
PLATTEVILLE    FAIR      78  68  70 CALM      29.86S HX  80
$$

WIZ056-057-062-063-064-067-068-302100-
SOUTH CENTRAL WISCONSIN

CITY           SKY/WX    TMP DP  RH WIND       PRES   REMARKS
BARABOO/DELLS  PTSUNNY   76  66  70 W6        29.82S
LONE ROCK      MOSUNNY   81  66  60 W10       29.82S HX  83
WATERTOWN      CLOUDY    72  69  92 W7        29.80R
MADISON        PTSUNNY   76  67  73 W9        29.81R
MIDDLETON      MOCLDY    78  66  66 W16       29.82S HX  80
MONROE         CLOUDY    77  64  65 W20       29.85R
JANESVILLE     MOSUNNY   77  66  69 SW13G21   29.82F
$$

WIZ051-052-058>065-066-070>072-302100-
SOUTHEAST WISCONSIN

CITY           SKY/WX    TMP DP  RH WIND       PRES   REMARKS
MILWAUKEE      PTSUNNY   76  66  71 SW20G26   29.80S
WAUKESHA       PTSUNNY   73  66  78 SW13G23   29.81F
MILWAUKEE/TIMM NOT AVBL
RACINE         CLOUDY    76  65  68 SW13G24   29.83S
BURLINGTON     PTSUNNY   74  67  78 SW9       29.82F
KENOSHA        LGT RAIN  76  67  73 W16       29.83S
FOND DU LAC    CLOUDY    73  68  84 S6        29.78F
SHEBOYGAN      CLOUDY    75  67  76 W12       29.76F
WEST BEND      PTSUNNY   77  63  61 W13G18    29.78F
JUNEAU         CLOUDY    71  67  88 SW6       29.81F
$$

LSZ147-162-302100-
LAKE SUPERIOR

STATION/POSITION TIME  TEMP    WIND        PRES    WAVE
                       AIR SEA DIR/SP/G            HT/PER
                 (UTC) (F)     (DEG/KT/KT) (MB)    (FT/S)
W MID LAKE BUOY  1950   59 58   30/  6/  8 1011.4R   1/ 3
DEVILS ISLAND    2000   60      50/  7/  8 1012.0R
PORT WING        1940   64      40/ 10/ 13 1011.9R
SAXON HARBOR     1940   62      40/  8/ 10 1011.9R
$$

LMZ867-665-643>646-302100-
LAKE MICHIGAN

STATION/POSITION TIME  TEMP    WIND        PRES    WAVE
                       AIR SEA DIR/SP/G            HT/PER
                 (UTC) (F)     (DEG/KT/KT) (MB)    (FT/S)
N MID LAKE BUOY  1950   67 65  210/ 16/ 19 1006.2F   4/ 6
NORTHPORT PIER   1900   70     150/  3/  7 1006.8S
SISTER BAY       1841   74     180/  7/  8   N/A
KEWAUNEE LAKESHO 2000          300/  9/ 13 1006.4S
SHEBOYGAN LAKESH 2000   76 60  220/ 15/ 17 1007.4F
ATWATER BUOY     2000   73     220/ 16/ 19 1009.8F
MILWAUKEE LAKESH 2000   77     240/ 16/ 21   N/A
S MID LAKE BUOY  1750   72 69  190/ 17/ 21   N/A
KENOSHA   LAKESH 2000   78     240/ 19/ 28 1009.8S
$$

TC  - TEMPERATURE IN CELSIUS
VSB - VISIBILITY IN STATUTE MILES
WCI - WIND CHILL INDEX
HX  - HEAT INDEX




USA.gov is the U.S. government's official web portal to all federal, state and local government web resources and services.